Volver al catálogo

COSMOS 2275

GLONASS

ActivoNavegaciónMEO
NORAD 23045·PAYLOAD·🇷🇺 Russia

Lanzado Apr 11, 1994 desde Baikonur Cosmodrome

Loading…

Próximos Pases (próximas 24 horas)

TLE

EnvejeciendoSource: Space-Track

Época: Sep 2, 2026, 07:02 UTC

1 23045U 94021C   26245.29349887 -.00000004  00000-0  00000+0 0  9993
2 23045  63.9151 297.8002 0027554  31.0111 335.1257  2.13101392251870

Sigue COSMOS 2275 en tiempo real con AllMySat

Download on the App Store